Location: Israel
(31.9174°N, 34.8736°E)
Time: 21:25:46
(UTC+02:00)

ISS - Visible Passes

Search period start: 01 December 2022 00:00
Search period end: 11 December 2022 00:00
Orbit: 414 x 421 km, 51.6° (Epoch: 01 December)

Date Brightness Start Highest point End Pass type
(mag) Time Alt. Az. Time Alt. Az. Time Alt. Az.
04 Dec -1.6 18:10:49 10° NNW 18:11:49 17° NNW 18:11:49 17° NNW visible
05 Dec -2.1 17:23:11 10° N 17:25:30 17° NE 17:26:27 16° NE visible
05 Dec -0.5 18:59:15 10° WNW 18:59:26 11° WNW 18:59:26 11° WNW visible
06 Dec -3.8 18:10:57 10° NW 18:14:17 79° SW 18:14:26 76° S visible
07 Dec -3.6 17:22:52 10° NW 17:26:08 50° NE 17:29:22 10° ESE visible
07 Dec -0.4 19:01:53 10° WSW 19:02:31 10° SW 19:03:01 10° SW visible
08 Dec -1.1 18:11:58 10° WNW 18:14:30 20° SW 18:17:02 10° S visible
09 Dec -2.3 17:23:17 10° WNW 17:26:26 40° SW 17:29:34 10° SSE visible
